Preview of NWS' New Version of Forecast
This preview is not operational and should not be used for support decisions.

Regional Weather Roundup (RWR)

Issued by National Weather Service (NWS)

                            
000
ASUS43 KLSX 212007
RWRMO 

WEATHER SUMMARY FOR MISSOURI
NATIONAL WEATHER SERVICE SPRINGFIELD MO
300 PM CDT SUN APR 21 2019

NOTE: "FAIR" INDICATES FEW OR NO CLOUDS BELOW 12,000 FEET WITH NO
       SIGNIFICANT WEATHER AND/OR OBSTRUCTIONS TO VISIBILITY.
       CURRENT SKY AND/OR WEATHER CONDITIONS ARE NOT AVAILABLE FOR
       CHILLICOTHE AND FARMINGTON.

MOZ001>031-035>038-043-044-053-054-212100-
...NORTHERN AND WESTERN MISSOURI...
  
CITY           SKY/WX    TMP DP  RH WIND       PRES   REMARKS
KANSAS CTY INT PTSUNNY   84  49  29 S25G37    29.78F                  
KANSAS C DTWN  SUNNY     85  47  26 S18G38    29.79F                  
LEE'S SUMMIT   SUNNY     83  48  29 S24G43    29.82F                  
ST JOSEPH      SUNNY     85  51  31 S26G40    29.74F                  
CHILLICOTHE      N/A     83  49  30 S20G32    29.82F                  
KIRKSVILLE     MOSUNNY   80  50  34 S16G22    29.88F                  
     
$$
MOZ066>068-077>081-088>096-101>105-212100-
...SOUTHWEST MISSOURI...
  
CITY           SKY/WX    TMP DP  RH WIND       PRES   REMARKS
SPRINGFIELD    SUNNY     81  51  35 S17G24    29.92F                  
JOPLIN         SUNNY     82  48  30 S22G39    29.88F                  
BRANSON        MOSUNNY   82  45  26 S16G25    29.97F                  
               
$$
MOZ032>034-039>042-045>050-055>058-069>072-212100-
...CENTRAL MISSOURI...  
  
CITY           SKY/WX    TMP DP  RH WIND       PRES   REMARKS
COLUMBIA       MOSUNNY   81  46  29 S16G29    29.92F                  
JEFFERSON CITY MOSUNNY   83  45  26 S14G22    29.91F                  
ROLLA          SUNNY     80  45  28 S13G22    29.96F                  
SEDALIA        SUNNY     80  47  31 S17G25    29.89S                  
WHITEMAN AFB   MOSUNNY   83  49  30 S18G26    29.82F                  
WARRENSBURG    MOSUNNY   82  43  24 S23G30    29.85S                  
OSAGE BEACH    SUNNY     83  45  26 S16G26    29.93F                  
               
$$
MOZ051-052-059>065-212100-
...EAST CENTRAL MISSOURI...
  
CITY           SKY/WX    TMP DP  RH WIND       PRES   REMARKS
ST LOUIS INTL  MOSUNNY   79  41  25 SE13      29.99F                  
SPIRIT OF STL  MOSUNNY   81  43  26 S6G23     29.96F                  
ST CHARLES     SUNNY     79  45  29 SE9       29.97F                  
                   
$$
MOZ072>076-082>087-097>100-106>115-212100-
...SOUTH CENTRAL AND SOUTHEAST MISSOURI...
  
CITY           SKY/WX    TMP DP  RH WIND       PRES   REMARKS
CAPE GIRARDEAU FAIR      75  49  39 S13       30.04F                  
FARMINGTON     MOSUNNY   79  45  29 SW9       30.02F                  
POPLAR BLUFF   FAIR      77  48  35 S8        30.04F                  
WEST PLAINS    SUNNY     79  44  28 S14       30.01F                  
                                       
$$